x

Portland 12 Nm Southeast Of Portland,me (44007) Wave Buoy

1:50 - Sun 20th Apr 2014 All times are EDT. -4 hours from GMT.

  • Sig Wave height 3.0ft
  • Swell Direction
  • Peak Period 8s
  • Average Period 8s
  • Wind
    11mph
  • Sea Temp 41°f
  • Air Temp 42°f
  • Sea Pressure 1029.8mb
  • Portland 12 Nm Southeast Of Portland,me
  • Portland 12 Nm Southeast Of Portland,me

More Historic Weather Station data

Upgrade to MSW Pro to gain access to the past 30 days of data for over 8000 Wavebouys and Weather Stations around the globe.

Join Pro

Comparision Forecast

View Surf forecast
   
dim. 04/20 1:50 3ft 8s 8s 11
mph
1029.8mb 41f 42f
12:50 3.5ft 11s 8s 11
mph
1029.9mb 41f 43f
sam. 04/19 11:50 3.5ft 9s 7s 9 11 mph 1029.5mb 41f 44f
10:50 3.5ft 9s 6s 11 13 mph 1029.4mb 42f 45f
9:50 3.5ft 9s 7s 11 13 mph 1028.7mb 41f 44f
8:50 4ft 8s 7s 16 18 mph 1027.1mb 41f 45f
7:50 3.5ft 9s 7s 13 16 mph 1026mb 41f 47f
6:50 3.5ft 9s 5s 20 25 mph 1024.5mb 41f 47f
5:50 3ft 9s 4s 22 27 mph 1024mb 41f 48f
4:50 3.5ft 9s 5s 20 25 mph 1023mb 41f 48f
3:50 3.5ft 10s 6s 22 25 mph 1021.7mb 41f 49f
2:50 3.5ft 10s 6s 16 20 mph 1021.2mb 41f 49f
1:50 4.5ft 9s 7s 9 13 mph 1021.5mb 41f 48f
12:50 4.5ft 9s 7s 16 22 mph 1021.4mb 41f 50f
11:50 4.5ft 9s 7s 16 20 mph 1021.3mb 41f 49f
10:50 5ft 8s 8s  -  2 mph 1021.4mb 42f 41f
9:50 4.5ft 9s 7s 4 7 mph 1021.3mb 41f 39f
8:50 4.5ft 9s 7s 9 11 mph 1021.3mb 40f 39f
7:50 5ft 9s 7s 4 7 mph 1021.4mb 40f 37f
6:50 4.5ft 10s 7s 11 13 mph 1021.1mb 40f 37f
5:50 4ft 10s 6s 11 13 mph 1020.8mb 40f 37f
4:50 4.5ft 10s 7s 13 16 mph 1020.7mb 40f 37f
3:50 5ft 9s 7s 11 13 mph 1021.2mb 40f 37f
2:50 5ft 10s 7s 9 11 mph 1021.4mb 40f 38f
1:50 5ft 10s 7s 11
mph
1022.5mb 40f 38f
12:50 5.5ft 8s 7s 11 13 mph 1023.7mb 40f 38f
ven. 04/18 11:50 6ft 9s 7s 11 13 mph 1024.2mb 40f 38f
10:50 6ft 9s 7s 11 13 mph 1025.1mb 40f 38f
9:50 6ft 9s 7s 9 11 mph 1025.5mb 40f 38f
8:50 5.5ft 9s 7s 7 9 mph 1026.8mb 40f 38f
7:50 5ft 9s 7s 9 11 mph 1026.4mb 40f 37f
6:50 5.5ft 9s 7s 4 7 mph 1027.8mb 40f 37f
5:50 5ft 9s 7s 7 9 mph 1028.3mb 41f 37f
4:50 4.5ft 9s 6s 7 9 mph 1029.6mb 41f 38f
3:50 5ft 9s 7s 7 9 mph 1030.4mb 41f 37f
2:50 4.5ft 9s 6s 7 9 mph 1031.3mb 41f 38f
1:50 4.5ft 8s 6s 4 7 mph 1032.2mb 41f 38f
12:50 4.5ft 9s 6s 9 11 mph 1032.8mb 40f 38f
11:50 4.5ft 8s 6s 9
mph
1034.4mb 40f 38f
10:50 5ft 8s 6s 9
mph
1036mb 40f 38f
9:50 4.5ft 8s 6s 11 13 mph 1035.6mb 40f 37f
8:50 3.5ft 8s 5s 13 16 mph 1034.9mb 40f 36f
7:50 3.5ft 8s 5s 16 20 mph 1035.3mb 39f 35f
6:50 3ft 9s 5s 16 18 mph 1035.8mb 39f 34f
5:50 2.5ft 9s 5s 11 13 mph 1037.4mb 39f 35f
4:50 3ft 9s 5s 13 16 mph 1037.3mb 40f 34f
3:50 3ft 7s 5s 13 16 mph 1037.2mb 40f 35f
2:50 3ft 7s 6s 11 13 mph 1037.3mb 40f 36f
1:50 3.5ft 8s 6s 7 9 mph 1037.7mb 40f 37f
12:50 3.5ft 7s 5s 7 9 mph 1038.7mb 40f 37f
jeu. 04/17 11:50 3.5ft 8s 6s 7 9 mph 1039.6mb 40f 37f
10:50 3.5ft 7s 6s 4 7 mph 1040.3mb 40f 37f
9:50 3.5ft 8s 5s 2
mph
1041mb 40f 36f
8:50 3.5ft 6s 5s 2 4 mph 1041.6mb 40f 36f
7:50 3.5ft 9s 5s 7 9 mph 1041.7mb 40f 36f
6:50 3.5ft 9s 5s 9 11 mph 1041.9mb 40f 36f
5:50 3.5ft 9s 5s 11 13 mph 1042.2mb 40f 36f
4:50 3.5ft 6s 5s 13 18 mph 1042.1mb 40f 36f
3:50 3.5ft 6s 5s 13 16 mph 1042.2mb 40f 35f
2:50 3.5ft 6s 5s 16 18 mph 1042.5mb 40f 35f
1:50 3.5ft 6s 5s 16 18 mph 1043.2mb 40f 34f
12:50 4ft 6s 5s 16 18 mph 1043.6mb 40f 34f
11:50 3.5ft 10s 5s 18 20 mph 1043.9mb 40f 33f
10:50 3.5ft 10s 5s 18 20 mph 1044.4mb 39f 33f
9:50 3.5ft 11s 5s 18 20 mph 1044.3mb 39f 32f
8:50 3.5ft 10s 5s 13 18 mph 1044.4mb 39f 31f
7:50 3.5ft 11s 5s 16 20 mph 1043.7mb 39f 31f
6:50 3.5ft 10s 5s 20 25 mph 1042.3mb 39f 31f
5:50 3ft 11s 5s 18 20 mph 1041.8mb 39f 30f
4:50 3ft 10s 5s 16 18 mph 1041mb 39f 30f
3:50 2.5ft 10s 4s 18 20 mph 1040mb 39f 31f
2:50 3.5ft 11s 4s 18 22 mph 1038.9mb 39f 31f
1:50 3.5ft 11s 4s 20 22 mph 1038.2mb 39f 31f
12:50 3.5ft 11s 5s 20 25 mph 1037.7mb 39f 32f
mer. 04/16 11:50 3.5ft 11s 4s 20 25 mph 1036.6mb 39f 33f
10:50 3.5ft 12s 5s 20 25 mph 1035.9mb 39f 33f
9:50 3.5ft 11s 5s 18 22 mph 1035.1mb 40f 35f
8:50 3.5ft 13s 6s 16 20 mph 1034.2mb 40f 36f
7:50 4ft 12s 7s 16 20 mph 1032.4mb 40f 37f
6:50 3.5ft 11s 6s 18 22 mph 1031.4mb 40f 37f
5:50 3.5ft 11s 6s 16 18 mph 1030.7mb 40f 38f
4:50 3.5ft 10s 7s 16 18 mph 1029.5mb 40f 38f
3:50 3.5ft 11s 6s 18 25 mph 1027.9mb 40f 38f
2:50 3.5ft 11s 6s 18 22 mph 1026.9mb 40f 37f
1:50 3ft 11s 5s 16 20 mph 1025.9mb 40f 35f
12:50 3ft 11s 5s 16 22 mph 1025mb 40f 34f
11:50 3.5ft 11s 5s 18 22 mph 1023.9mb 39f 33f
10:50 3.5ft 11s 5s 18 22 mph 1022.9mb 39f 32f
9:50 3.5ft 10s 5s 20 22 mph 1021.6mb 39f 31f
8:50 3.5ft 8s 5s 18 22 mph 1019.8mb 39f 30f
7:50 4ft 9s 5s 25 27 mph 1017.3mb 39f 30f
6:50 4ft 9s 5s 20 25 mph 1014.7mb 38f 30f